Regional Weather Roundup
Issued by NWS

Home | Current Version | Previous Version | Graphics & Text | Print | Product List | Glossary Off
Versions: 1 2 3 4 5 6 7 8 9 10 11 12 13 14 15 16 17 18 19 20 21 22 23 24 25 26 27 28 29 30 31 32 33 34 35 36 37 38 39 40 41 42 43 44 45 46 47 48 49 50

000
ASUS43 KMPX 270301
RWRMN
WEATHER ROUNDUP FOR MINNESOTA
NATIONAL WEATHER SERVICE TWIN CITIES/CHANHASSEN MN
1000 PM CDT TUE JUL 26 2016


NOTE: "FAIR" INDICATES FEW OR NO CLOUDS BELOW 12,000 FEET WITH NO
SIGNIFICANT WEATHER AND/OR OBSTRUCTIONS TO VISIBILITY. N/A MEANS
CURRENT SKY AND/OR WEATHER CONDITIONS ARE NOT AVAILABLE.

MNZ060>063-068>070-270400-
   Twin Cities Metro

CITY           SKY/WX    TMP DP  RH WIND       PRES   REMARKS
TWIN CITIES    MOCLDY    83  68  60 SW8       29.98R
ST PAUL        PTCLDY    80  69  69 SW5       29.97R
CRYSTAL        MOCLDY    80  65  59 NE8       29.97R
BLAINE         MOCLDY    79  64  61 CALM      29.99R
LAKEVILLE      CLEAR     73  72  94 CALM      29.99R
EDEN PRAIRIE   PTCLDY    79  69  71 SW5       29.98R
LAKEVILLE      CLEAR     73  72  94 CALM      29.99R
SOUTH ST PAUL  CLEAR     80  67  66 SW3       29.97R
LAKE ELMO      FAIR      75  70  83 N7        30.00R
$$
MNZ001>005-007-008-013>017-022>024-027-028-270400-
   Northwest Minnesota

CITY           SKY/WX    TMP DP  RH WIND       PRES   REMARKS
HALLOCK        CLOUDY    70  63  78 NE6       30.01R
ROSEAU         CLOUDY    68  61  77 N6        30.02R
WARROAD        CLOUDY    70  59  68 NW3       30.02R
THIEF RVR FALL CLOUDY    71  65  81 N7        30.00R
CROOKSTON      CLOUDY    72  66  83 N5        29.99R
FOSSTON        CLOUDY    72  63  73 NE5       30.00R
DETROIT LAKES  CLOUDY    72  61  68 NE9G16    29.99R
MOORHEAD       CLOUDY    70  66  88 NW13G20   29.97R THUNDER
PARK RAPIDS    PTCLDY    73  69  87 NW3       29.97R
MAHNOMEN       CLOUDY    69  62  78 SE5       29.97R
$$
MNZ006-009>011-018-025>026-270400-
   North Central Minnesota

CITY           SKY/WX    TMP DP  RH WIND       PRES   REMARKS
BAUDETTE       CLOUDY    71  58  63 N6        30.01R
FLAG ISLAND    CLOUDY    73  57  56 N9        30.01R
INTL FALLS     CLOUDY    67  58  72 CALM      29.99R
WASKISH        CLOUDY    70  63  78 N3        29.99R
BIG FORK       CLOUDY    72  66  83 CALM      30.00R
LONGVILLE      PTCLDY    70  68  94 CALM      29.97R
GRAND RAPIDS   PTCLDY    70  65  84 CALM      30.00R
CRANE LAKE     CLOUDY    63  63 100 CALM      29.99R
ORR            CLOUDY    66  63  88 CALM      29.96S
COOK           PTCLDY    66  64  94 CALM      29.99R
WALKER         FAIR      70  69  96 CALM      29.97R
$$
MNZ012-019>021-037-270400-
   Northeast Minnesota

CITY           SKY/WX    TMP DP  RH WIND       PRES   REMARKS
DULUTH         CLOUDY    74  68  81 W8        29.99R
ELY            CLOUDY    68  61  77 CALM      29.99R
HIBBING        PTCLDY    67  62  84 N5        29.98R
EVELETH        MOCLDY    68  64  88 CALM      30.00R
DULUTH HARBOR  CLOUDY    79  70  73 SW10      29.96R
TWO HARBORS    CLOUDY    77  72  83 CALM      29.94S
SILVER BAY     MOCLDY    70  68  94 CALM      29.95R
GRAND MARAIS     N/A     61  60  97 CALM      29.93R
G MARAIS ARPRT CLEAR     61  55  82 NW5       30.01R
$$
MNZ029>031-032-039>041-046>048-054>057-064-270400-
   West Central Minnesota

CITY           SKY/WX    TMP DP  RH WIND       PRES   REMARKS
FERGUS FALLS   PTCLDY    70  68  94 W6        29.98R
WHEATON        CLOUDY    72  70  94 N3        29.98S
MORRIS         CLOUDY    73  68  83 CALM      29.98R
ALEXANDRIA     CLOUDY    70  66  87 W3        29.99F
ELBOW LAKE     FAIR      71  67  89 SW6       29.99R
WADENA         CLOUDY    66  63  88 CALM      29.96F
GLENWOOD       CLOUDY    73  70  88 W7        30.00S
APPLETON       CLOUDY    73  66  78 CALM      29.98R
BENSON         CLOUDY    73  64  73 CALM      29.99R
ORTONVILLE     MOCLDY    73  64  73 CALM      29.98R
MADISON        CLOUDY    72  66  83 NE3       29.99R
WILLMAR        MOCLDY    73  68  83 NW3       30.01R
$$
MNZ033>034-036-042>043-049>051-058-059-270400-
   Central Minnesota

CITY           SKY/WX    TMP DP  RH WIND       PRES   REMARKS
ST CLOUD       CLOUDY    70  65  84 CALM      29.98R
SAUK CENTRE    FAIR      67  65  93 CALM      29.99S
PAYNESVILLE    CLOUDY    71  68  88 CALM      29.99S
AITKIN         CLOUDY    68  63  83 CALM      29.96S
PINE RIVER     PTCLDY    64  64 100 CALM      30.01R
BRAINERD       PTCLDY    65  64  97 CALM      29.98R
STAPLES        CLEAR     66  61  82 CALM      29.98R
LONG PRAIRIE   FAIR      64  64 100 SE3       29.99R
LITTLE FALLS   CLOUDY    64  63  94 CALM      29.98R
LITCHFIELD     PTCLDY    77  73  88 CALM      30.00R
BUFFALO        CLOUDY    73  64  72 CALM      30.00R
MAPLE LAKE     MOCLDY    74  67  78 CALM      30.00R
HUTCHINSON     CLOUDY    76  72  86 S3        30.00R
$$
MNZ037-044-045-052-053-270400-
   East Central Minnesota

CITY           SKY/WX    TMP DP  RH WIND       PRES   REMARKS
PRINCETON      CLOUDY    72  63  73 CALM      29.98S
MORA           CLOUDY    64  63  94 CALM      29.99S
CAMBRIDGE      CLOUDY    73  61  64 CALM      29.97R
RUSH CITY      CLOUDY    69  62  77 CALM      29.99R
MOOSE LAKE     MOCLDY    64  61  88 CALM      29.96F
HINCKLEY       LGT RAIN  66  64  94 CALM      29.97F
CLOQUET        CLOUDY    72  59  64 W3        29.99S
MCGREGOR       CLOUDY    68  63  83 CALM      29.98S
$$
MNZ071>073-080-081-089-090-097-098-270400-
   Southwest Minnesota

CITY           SKY/WX    TMP DP  RH WIND       PRES   REMARKS
MONTEVIDEO     PTCLDY    72  64  78 CALM      30.01R
GRANITE FALLS  PTCLDY    75  69  82 CALM      30.00R
CANBY          CLOUDY    73  67  83 CALM      30.00R
MARSHALL       MOCLDY    76  69  79 S5        30.00R
REDWOOD FALLS  PTCLDY    77  69  76 S5        29.98R
OLIVIA         CLOUDY    73  68  83 NW5       29.99R
PIPESTONE      CLOUDY    75  66  73 S7        30.01R
WINDOM         CLOUDY    75  66  73 S6        30.02R
WORTHINGTON    PTCLDY    74  68  81 S10       30.03R
JACKSON        CLOUDY    77  64  65 S8        30.03R
TRACY          MOCLDY    76  70  83 CALM      30.01R
SLAYTON        CLOUDY    72  68  87 S5        30.03R
$$
MNZ065>067-074>077-082>085-091>093-270400-
   South Central Minnesota

CITY           SKY/WX    TMP DP  RH WIND       PRES   REMARKS
MANKATO        CLOUDY    75  66  73 S6        30.00R
NEW ULM        PTCLDY    75  70  83 S5        29.99R
ST JAMES       CLOUDY    72  64  78 S5        30.00R
FAIRMONT       CLOUDY    75  68  78 S7        30.00R
GLENCOE        MOCLDY    77  72  85 CALM      29.99R
FARIBAULT      CLEAR     75  70  83 S5        30.01R
OWATONNA       CLEAR     75  68  78 S3        30.02R
WASECA         PTCLDY    72  68  88 S3        30.02R
ALBERT LEA     CLEAR     75  68  78 S5        30.02R
$$
MNZ078>079-086>088-094>096-270400-
   Southeast Minnesota

CITY           SKY/WX    TMP DP  RH WIND       PRES   REMARKS
ROCHESTER      CLEAR     72  70  93 S6        30.03R
RED WING       RAIN      73  70  88 W5        29.97R
STANTON        CLEAR     75  68  78 CALM      29.98R
DODGE CENTER   PTCLDY    72  68  88 S6        30.03R
WINONA         CLEAR     77  66  69 CALM      29.99R
AUSTIN         CLEAR     73  68  83 S3        30.02R
PRESTON        CLEAR     73  67  81 SW5       30.04R
$$
ABBREVIATIONS USED IN REMARKS
   TC - TEMPERATURES IN CELSIUS
  WCI - WIND CHILL INDEX
   HX - HEAT INDEX
  VSB - VISIBILITY
$$



USA.gov is the U.S. government's official web portal to all federal, state and local government web resources and services.